GFSNW_700_spd_081.txt.gz
Wind_Speed
29 27 26 25 20 18 18 19 18 9 8 14 19 25 26 17 24 20 20 22 22 23 13 10 5 4 7 16 14 11 10 5 8 14 11 11 12 14 12 9 4 11 7 10
27 25 24 20 16 16 18 19 19 12 14 17 18 26 22 21 18 20 23 13 10 13 18 10 4 5 9 9 7 6 5 2 4 6 2 0 7 9 13 15 20 11 5 10
26 23 22 15 12 14 14 17 14 14 14 16 21 22 27 21 23 25 22 21 19 23 22 3 5 4 5 1 1 1 3 3 6 6 11 15 24 25 21 17 10 9 19 26
23 22 18 11 13 13 15 16 17 14 14 15 13 16 23 26 25 23 15 21 10 13 17 9 4 6 2 2 4 6 5 4 7 13 14 16 17 21 23 23 27 17 30 20
22 19 14 12 13 13 16 17 18 17 19 17 18 23 6 13 13 16 13 15 13 11 16 9 5 6 1 4 4 6 8 7 12 17 10 15 27 29 28 26 32 30 32 28
19 17 11 12 14 15 17 16 15 14 19 14 18 17 15 19 13 14 12 17 13 15 13 10 9 7 8 7 8 9 9 9 9 9 22 26 19 3 16 22 24 25 32 24
16 11 8 9 14 16 16 14 15 14 15 12 14 15 17 17 17 7 5 10 7 9 11 14 14 14 13 13 16 17 15 14 13 13 18 3 7 23 30 24 22 23 27 26
15 12 13 13 16 18 18 14 16 16 16 12 8 9 14 14 10 11 5 5 5 7 2 5 6 9 13 15 18 21 21 19 10 5 9 22 27 16 21 21 16 15 19 21
14 15 15 15 15 18 21 14 15 19 18 11 10 4 6 11 13 11 7 3 5 4 4 1 2 2 2 4 3 1 6 23 22 12 5 4 10 24 29 37 19 7 28 25
15 16 16 17 13 11 15 18 15 19 19 12 12 10 8 7 8 9 8 5 2 1 3 4 3 3 4 4 6 7 8 11 24 23 13 14 15 21 22 11 4 19 29 26
13 16 18 18 15 12 16 15 14 18 20 18 16 7 5 7 6 6 5 4 7 3 1 1 3 6 6 8 11 11 9 8 9 13 9 11 14 15 17 3 5 12 14 14
12 14 18 20 16 15 14 14 13 16 19 15 10 9 8 9 8 10 7 4 9 6 1 4 4 6 8 14 15 16 15 21 12 10 7 12 18 14 20 5 4 9 9 13
9 12 16 19 20 16 15 11 12 17 18 17 17 10 10 11 10 12 12 7 7 16 12 6 4 5 10 10 11 17 15 17 14 14 12 16 11 15 13 8 13 10 10 12
11 12 12 17 21 19 16 14 12 13 12 16 12 6 12 15 13 9 13 10 12 15 15 5 6 10 11 14 5 7 8 12 8 12 8 14 18 14 15 17 13 9 6 8
14 12 13 14 16 19 18 15 12 13 11 4 1 10 10 11 11 8 13 11 10 12 15 12 12 9 10 10 5 10 12 1 13 9 17 10 16 11 9 9 10 6 3 2
13 13 13 12 17 20 19 17 15 15 12 10 4 4 5 9 13 12 11 9 9 11 13 14 10 9 11 6 3 7 8 8 19 17 13 12 12 9 9 7 1 2 2 2
13 13 14 14 18 22 24 20 15 10 14 13 7 5 8 11 12 13 14 13 10 10 14 12 9 9 11 8 4 6 11 15 15 12 8 4 5 2 1 4 5 4 3 4
17 14 16 14 20 19 22 21 13 7 14 20 7 6 5 8 12 13 13 10 9 14 13 10 9 13 5 3 3 3 4 2 1 1 2 2 2 2 5 7 7 8 8 9
17 19 18 16 24 24 21 19 19 12 17 10 10 8 3 11 15 16 12 10 8 8 9 8 6 7 2 3 0 2 0 4 5 5 5 6 6 6 6 6 7 8 10 12
24 26 26 26 25 21 16 20 12 12 22 20 20 10 9 10 12 13 11 8 9 5 10 7 10 14 11 10 7 6 6 6 5 6 7 7 7 8 8 9 10 11 11 11
35 36 30 25 22 20 24 11 13 13 9 14 20 13 9 2 9 13 8 7 6 4 5 8 5 8 9 8 7 4 3 6 6 7 7 7 8 8 8 8 9 9 9 10
43 40 32 24 27 10 8 12 10 7 10 6 9 12 10 7 7 11 12 4 5 3 7 6 4 5 4 4 4 6 6 5 4 3 2 2 3 3 4 4 5 5 6 7
41 32 31 15 10 10 10 15 11 8 9 9 12 10 7 6 8 5 6 6 5 4 6 4 6 6 4 3 4 6 7 7 9 9 8 6 5 5 5 5 5 5 5 5
35 18 15 9 7 11 10 17 20 14 10 12 14 10 7 7 10 6 5 5 5 5 4 3 3 3 5 6 6 6 6 7 7 7 7 6 7 8 8 9 9 9 9 9
13 10 8 11 13 18 17 18 19 12 17 17 14 12 9 8 4 4 4 6 5 6 6 6 5 3 5 6 6 6 6 5 4 2 2 4 5 6 7 8 9 11 12 13
14 10 11 17 20 16 17 19 21 13 17 21 15 7 5 3 2 5 4 4 4 4 4 5 6 7 7 7 6 4 3 1 1 1 3 5 7 8 10 12 13 15 16 17
8 10 10 13 18 16 18 20 21 20 21 20 11 8 7 5 6 7 7 8 6 5 5 6 6 7 6 5 3 2 2 2 3 6 8 10 11 13 14 16 18 19 20 21

GFSNW_700_spd_084.txt.gz
Wind_Speed
24 26 29 28 26 27 24 22 18 13 14 13 11 14 18 19 17 12 20 22 21 19 21 26 19 9 8 15 19 21 18 7 4 5 8 7 7 9 8 5 3 9 6 9
25 27 26 24 23 23 20 20 15 11 8 11 12 15 21 20 21 19 13 14 8 9 10 13 14 19 4 19 17 14 14 5 3 1 4 4 2 3 6 11 12 12 5 5
25 25 23 21 19 16 15 15 11 15 13 8 13 15 21 20 22 20 20 20 16 20 20 21 19 25 2 10 15 12 7 8 4 3 4 10 13 15 13 12 10 15 21 32
25 22 19 17 15 12 12 13 13 12 13 15 17 14 24 18 16 20 22 22 14 15 12 12 22 13 4 6 6 3 5 6 2 2 9 11 13 15 19 26 25 19 35 33
22 17 15 13 12 11 11 14 13 13 14 16 13 15 21 15 15 16 18 13 8 13 16 15 14 4 4 2 1 2 3 3 5 10 10 10 20 24 20 11 16 26 30 37
16 14 13 8 9 10 12 11 13 12 11 11 12 14 18 19 24 16 11 11 12 17 11 10 8 4 3 3 5 5 3 4 5 2 11 19 17 11 12 24 22 24 28 27
14 12 9 7 10 10 11 11 12 13 16 16 16 16 18 23 26 26 7 15 14 13 13 9 12 12 9 10 9 9 9 8 5 9 12 2 3 12 23 22 28 26 28 32
14 14 10 10 11 13 14 13 13 14 18 16 11 11 16 21 23 19 15 14 10 12 12 6 4 7 6 8 8 11 10 8 3 2 4 16 14 10 22 29 38 28 22 25
16 13 13 14 15 13 14 16 15 16 17 12 11 10 8 19 23 16 14 11 10 10 8 6 5 4 3 2 2 2 1 3 10 7 3 3 5 19 24 27 24 20 23 10
14 11 15 16 18 13 12 11 16 18 18 13 14 11 14 14 14 16 16 12 5 3 2 3 2 2 1 2 4 5 5 6 14 17 9 9 17 14 17 12 13 24 3 21
13 12 15 16 19 13 13 12 11 16 18 15 16 11 8 7 10 11 12 6 14 12 6 4 3 2 2 4 5 7 6 5 5 6 7 8 9 10 11 20 12 10 2 8
11 12 13 18 19 15 16 13 10 15 17 14 8 6 9 8 7 9 6 7 8 20 13 6 4 3 2 7 5 7 5 10 6 10 6 12 16 16 16 19 12 9 16 20
11 9 10 15 21 16 16 13 10 15 15 14 12 9 13 8 6 9 8 6 11 14 20 9 3 3 8 7 7 12 9 15 12 14 14 16 14 14 14 17 7 6 10 12
13 11 7 11 18 19 18 12 9 9 10 13 7 4 7 11 7 8 8 5 11 10 13 12 10 8 8 11 11 11 15 9 1 7 7 8 13 9 4 6 6 4 3 5
16 13 10 11 13 16 17 15 11 9 9 7 7 5 7 6 8 8 8 5 4 7 11 11 12 9 10 9 9 9 11 6 6 3 10 5 8 8 7 1 2 3 3 4
18 14 9 13 13 16 19 16 15 11 10 11 6 1 5 9 9 11 9 8 7 8 10 11 9 11 13 7 3 6 6 4 7 10 9 7 9 7 6 6 6 3 4 2
14 15 12 15 13 21 20 17 11 7 10 10 6 5 7 9 12 13 10 9 8 8 11 9 11 10 14 8 1 2 8 11 8 7 7 5 2 1 0 0 1 4 6 5
15 13 11 14 14 16 20 19 11 7 11 12 6 5 5 7 10 12 12 11 10 11 9 11 9 10 9 2 3 4 3 3 4 2 1 1 3 6 8 8 7 8 10 10
15 16 16 12 20 20 17 17 17 12 11 7 8 7 3 5 8 11 9 9 8 8 9 9 6 6 4 3 1 2 1 2 3 5 7 7 8 9 9 9 9 10 10 10
18 22 21 18 19 20 15 17 21 17 23 17 16 9 6 6 12 10 10 7 8 3 5 7 8 14 13 9 6 5 6 7 6 6 7 8 8 9 10 10 10 12 11 11
27 28 26 19 17 20 18 12 14 12 9 16 19 16 13 9 10 13 11 4 5 3 5 6 4 6 6 8 8 7 6 6 7 6 7 8 8 9 10 10 10 10 9 9
33 32 25 26 18 10 9 12 10 8 11 8 7 11 12 5 5 10 8 5 5 4 5 5 4 7 6 5 7 5 5 6 7 6 6 5 6 7 7 7 6 6 6 6
33 33 27 19 14 10 11 14 13 13 5 10 15 15 11 9 6 6 6 5 4 3 5 4 8 5 6 6 5 5 6 4 3 4 5 5 4 3 2 1 1 2 3 4
36 31 15 15 9 10 11 21 22 17 7 11 19 15 9 8 10 5 4 5 4 4 5 5 7 7 6 6 5 4 4 1 0 0 1 2 3 3 2 3 4 5 7 9
22 20 10 10 10 14 18 12 17 19 10 18 18 12 8 9 6 6 6 5 4 5 6 7 5 5 5 4 2 2 3 3 3 3 4 4 4 5 6 8 10 11 13 15
21 13 13 18 19 19 18 16 17 17 15 18 14 9 6 5 4 6 6 5 5 4 5 7 6 6 3 1 2 3 4 3 3 3 5 7 9 11 12 13 15 16 18 19
10 14 12 19 22 21 20 20 21 16 21 22 10 6 6 5 5 4 5 5 4 3 3 3 3 3 3 3 2 2 1 1 3 7 10 13 15 16 17 18 19 21 22 23

GFSNW_700_spd_090.txt.gz
Wind_Speed
8 9 11 13 15 18 19 20 14 12 13 11 9 5 8 11 10 11 12 10 13 13 14 16 13 15 12 23 18 14 16 6 17 16 11 13 11 11 13 9 6 4 3 6
8 9 12 13 15 17 18 13 8 10 9 4 6 8 10 8 14 11 7 11 12 12 15 11 11 13 17 20 18 8 15 9 13 9 8 10 10 11 12 10 1 8 4 2
9 10 11 13 14 15 12 8 6 7 5 5 7 12 6 10 13 9 8 14 15 15 14 11 14 20 13 16 5 14 15 8 9 9 11 13 10 11 9 9 7 6 12 18
9 10 12 12 13 12 8 5 4 5 4 4 8 10 10 12 13 12 16 10 9 12 12 12 15 13 20 13 16 12 14 12 11 11 10 8 8 8 9 10 8 8 12 17
9 9 9 10 10 7 2 3 5 5 3 4 7 10 13 11 16 22 15 18 22 21 16 14 19 14 16 14 21 20 16 12 11 6 4 4 4 5 8 10 10 10 16 15
8 9 11 9 8 4 3 4 4 5 4 6 8 9 14 20 22 16 22 18 14 11 11 11 2 7 4 8 11 14 10 4 5 4 2 5 4 2 0 2 6 11 18 17
9 9 10 8 5 4 7 4 3 5 5 6 8 11 14 24 25 20 10 12 3 5 5 3 6 3 2 5 3 3 2 5 3 3 2 2 5 3 3 6 6 12 20 19
9 9 9 8 4 8 9 5 2 4 6 5 11 11 14 20 25 21 19 5 1 5 2 1 3 2 3 6 6 3 3 1 1 2 2 1 4 3 7 11 12 14 26 27
10 10 9 9 4 9 10 5 3 4 4 4 6 8 13 20 23 23 23 16 9 8 6 2 2 3 2 3 4 8 2 3 3 1 1 1 2 7 9 9 3 23 28 28
11 10 9 9 8 8 10 7 4 4 6 3 7 9 13 15 16 20 21 15 14 10 4 4 5 4 3 2 2 2 2 2 1 2 2 1 5 6 10 4 10 18 22 25
12 11 10 11 13 10 11 8 6 7 8 7 3 3 6 10 13 14 16 15 16 10 9 5 4 3 3 2 1 1 1 1 2 1 3 2 3 14 11 9 10 9 15 20
13 11 11 12 14 14 14 10 8 8 10 7 7 5 4 6 7 7 11 12 15 15 8 6 4 2 3 3 2 5 2 3 2 2 2 9 12 14 13 10 9 3 9 14
13 12 13 13 13 13 14 10 8 7 8 2 1 4 3 4 5 4 5 6 8 12 14 10 5 3 4 4 2 6 8 5 5 2 4 6 7 10 12 5 1 6 7 9
14 13 12 11 11 13 13 9 8 7 7 5 2 3 5 3 4 1 1 2 4 6 9 10 5 6 8 6 5 7 7 3 4 6 4 1 6 4 2 5 6 6 7 7
15 15 14 13 9 9 12 12 8 7 4 6 4 5 6 6 6 5 3 4 5 4 7 9 6 8 7 6 9 7 4 7 10 5 4 2 2 3 4 5 5 4 5 8
19 18 19 12 6 13 9 13 11 8 6 6 2 4 5 6 4 3 5 5 5 7 7 7 4 6 6 5 4 2 4 9 7 7 8 5 4 5 5 5 6 6 7 7
22 22 20 17 10 12 13 8 2 5 7 6 3 3 1 3 5 5 7 8 8 8 9 4 5 8 9 6 4 3 8 7 6 7 5 4 4 4 4 4 4 4 5 6
24 24 20 15 14 12 15 11 7 3 6 6 3 2 4 2 4 5 8 9 9 9 8 8 7 8 6 2 4 5 3 1 2 3 2 4 6 6 7 6 5 4 5 6
25 22 17 14 15 14 15 14 11 8 4 3 3 2 3 3 3 5 7 7 6 8 10 9 7 4 2 3 2 2 2 4 4 4 5 5 6 7 8 8 7 7 6 5
27 21 18 19 19 11 16 19 12 11 13 17 16 9 7 3 1 2 4 3 6 4 4 2 4 8 9 8 5 3 3 4 3 4 5 6 7 6 6 6 6 6 6 6
27 25 22 10 16 12 18 14 8 7 7 11 13 10 11 8 4 4 4 2 3 1 4 3 4 5 3 4 6 5 3 3 4 5 6 6 6 6 6 6 5 5 4 5
24 27 17 14 15 8 8 9 9 7 6 8 8 5 14 14 7 5 5 3 3 3 4 3 3 3 3 2 2 3 2 3 4 3 4 5 5 5 6 7 6 6 6 6
23 24 21 13 10 10 9 13 11 10 11 5 4 6 12 13 9 6 5 3 4 3 3 3 6 4 3 3 1 1 2 1 1 3 4 4 5 5 5 4 5 6 6 8
23 25 17 13 8 12 11 13 15 14 10 6 3 8 10 10 11 4 4 5 4 4 4 5 4 4 5 3 1 1 2 1 1 2 3 2 2 3 5 6 7 9 11 12
21 15 12 16 12 11 19 10 6 10 12 8 7 12 7 10 4 4 5 4 4 5 5 6 4 5 6 3 3 3 2 1 1 1 1 2 4 6 8 10 12 14 16 17
16 16 12 12 19 16 11 22 19 9 12 12 11 12 5 7 4 5 6 3 4 4 4 5 5 6 5 4 5 3 2 1 1 2 1 4 7 9 11 13 15 17 19 21
14 19 22 15 16 18 16 10 16 13 15 15 10 7 6 5 6 5 6 6 3 3 2 3 5 6 6 5 4 3 3 4 2 3 5 7 9 12 14 17 19 20 21 22

GFSNW_700_spd_096.txt.gz
Wind_Speed
24 20 17 17 13 9 7 5 4 6 5 3 1 2 6 9 6 9 13 12 14 16 18 21 21 21 16 19 17 25 18 15 15 20 21 20 27 20 21 8 6 15 1 3
21 20 18 14 11 8 6 4 9 5 1 5 1 3 3 4 8 11 14 15 13 16 18 22 15 17 17 22 27 14 20 7 8 10 24 24 31 26 20 18 9 9 7 5
23 20 16 13 10 8 7 6 6 7 6 1 7 1 1 5 11 14 13 17 18 15 16 15 11 17 16 18 29 17 19 21 19 18 11 24 28 26 21 15 9 5 8 16
20 17 15 12 10 8 5 4 5 7 5 6 5 1 5 10 14 14 14 10 13 17 22 20 19 19 23 13 8 19 12 10 15 31 33 20 21 15 7 8 5 3 5 13
19 15 14 11 9 6 6 6 7 2 9 11 0 6 6 9 16 15 11 13 16 18 20 17 22 21 12 21 18 27 11 3 5 25 18 24 17 9 8 6 4 4 7 3
17 15 13 10 8 7 6 7 8 8 5 4 2 5 8 14 21 11 10 16 17 15 13 11 15 13 6 15 24 22 11 2 6 17 19 26 22 13 10 14 10 10 14 19
16 14 10 9 9 9 9 10 9 12 7 5 4 4 8 11 17 17 16 15 13 10 11 11 12 12 12 14 11 10 9 7 5 5 9 9 14 17 13 11 10 9 9 18
15 12 10 9 9 9 10 11 9 15 14 3 3 5 7 10 15 17 21 12 10 11 12 12 9 4 3 6 9 10 10 8 6 6 16 17 13 15 14 12 9 10 13 19
13 12 11 9 9 10 11 11 6 6 8 5 4 1 8 7 12 10 17 15 10 12 20 19 3 6 2 2 7 15 11 13 8 5 8 3 5 7 5 2 1 12 15 20
14 12 11 11 11 11 13 7 8 5 10 2 6 4 5 4 9 10 12 9 11 10 17 16 9 10 11 7 6 9 8 11 14 9 7 6 11 7 1 2 5 10 13 17
13 12 11 11 11 12 15 7 9 5 6 10 10 6 4 4 3 5 10 8 15 13 10 10 10 8 10 8 12 10 13 11 10 9 6 4 11 4 4 2 3 6 9 11
15 13 12 13 11 12 14 8 8 4 2 6 7 7 5 4 4 5 10 9 9 12 10 9 6 8 13 16 6 14 9 8 3 5 4 8 10 10 6 3 3 3 5 7
14 14 13 12 12 13 14 7 5 2 2 3 4 7 4 5 3 2 3 5 5 8 12 11 8 9 14 13 10 8 10 6 4 3 7 8 10 7 6 6 5 3 2 5
15 15 14 11 12 15 14 8 6 3 2 1 1 5 10 6 6 4 3 4 4 4 9 8 8 10 12 8 8 11 10 3 4 1 1 4 8 6 5 7 7 5 5 7
16 15 13 12 12 15 12 9 6 4 2 4 6 7 9 9 8 6 6 6 6 4 4 5 5 9 9 9 8 10 12 3 5 4 1 1 2 3 3 4 4 4 5 6
16 15 14 14 13 15 11 8 6 6 5 6 3 2 5 8 9 7 7 7 7 5 7 6 3 6 9 7 8 9 5 4 3 2 2 3 3 5 5 3 2 2 3 4
17 16 15 16 18 14 12 5 1 4 5 4 6 3 2 3 5 6 6 8 4 5 7 4 5 10 11 7 6 4 2 2 3 5 4 3 6 6 5 4 3 3 4 5
18 17 21 19 15 11 10 6 4 1 2 4 4 3 5 3 4 7 7 6 6 7 4 6 7 8 8 3 2 5 3 3 4 3 2 3 5 5 4 3 2 3 3 3
20 23 24 16 10 9 9 8 6 5 3 3 5 6 5 1 3 4 5 2 4 3 5 5 6 4 3 5 3 3 4 4 4 4 3 1 1 0 0 1 1 2 2 2
25 28 22 12 11 12 9 5 11 12 12 15 16 9 5 4 5 2 2 2 2 2 4 2 3 8 6 6 3 2 4 4 1 2 3 3 3 3 3 3 3 4 4 5
28 28 18 8 7 18 11 7 6 5 5 6 5 11 13 6 6 3 4 3 2 1 3 1 3 6 3 2 4 3 1 2 2 3 4 4 4 4 3 4 5 6 6 6
28 27 12 12 15 7 6 6 6 6 3 6 2 4 8 9 8 5 3 3 2 3 3 2 3 3 3 2 3 4 3 1 2 3 3 3 4 5 6 6 6 5 6 7
27 15 14 12 11 9 9 11 8 6 6 5 4 4 7 8 8 5 2 2 4 3 2 3 5 4 2 2 3 4 4 4 4 2 2 3 5 6 5 5 6 8 9 11
22 11 14 10 7 10 8 12 11 10 8 6 5 4 3 5 8 4 3 3 2 2 2 4 4 3 3 4 3 4 5 4 3 2 3 4 5 5 6 7 9 11 14 16
22 7 11 12 10 6 9 7 7 8 9 5 4 3 4 7 6 4 4 2 3 4 5 6 6 4 5 6 3 4 4 4 3 3 4 3 3 5 7 10 13 16 19 22
18 7 12 19 15 7 7 13 8 2 1 5 5 5 3 5 4 3 5 3 3 3 4 4 4 5 7 6 5 5 4 3 3 4 1 2 5 8 11 15 18 20 23 24
6 12 11 13 14 16 11 5 3 10 8 5 4 4 5 4 4 4 5 6 3 4 3 3 2 4 6 6 6 5 4 4 4 1 3 6 9 12 15 18 21 22 23 25

GFSNW_700_spd_099.txt.gz
Wind_Speed
30 33 34 28 23 21 15 12 7 7 5 4 4 2 10 10 4 7 10 11 15 16 19 23 24 24 20 21 28 26 24 17 23 31 20 23 21 27 21 5 1 12 3 2
35 31 28 25 20 15 12 10 7 6 6 7 5 7 2 3 5 10 10 15 15 13 23 24 18 23 14 19 16 15 26 8 12 18 6 13 14 21 20 21 6 5 2 4
28 27 24 21 17 15 13 10 5 4 6 7 12 8 6 7 8 15 13 19 15 12 19 17 17 25 17 17 22 24 26 22 22 14 12 15 13 16 20 13 9 0 9 18
26 23 20 19 16 14 11 10 8 8 7 5 8 5 3 5 10 16 12 6 9 16 23 24 17 17 19 18 10 11 16 23 24 23 24 19 22 20 12 7 3 3 15 18
25 21 20 17 15 12 12 13 9 12 11 9 3 2 5 8 16 17 11 13 18 15 16 18 25 21 17 16 13 16 22 15 17 33 19 20 15 16 13 15 19 16 11 10
22 21 18 17 14 13 11 10 10 7 8 14 6 4 7 11 16 11 15 16 16 14 14 17 18 16 12 14 21 23 24 8 12 24 36 22 20 24 23 21 15 11 14 15
20 18 17 15 14 11 8 7 11 14 13 4 2 4 3 9 13 14 16 17 12 14 18 16 10 9 13 11 8 8 13 4 2 0 5 7 14 24 22 18 20 18 15 18
19 17 15 14 11 8 6 8 8 20 18 9 5 7 6 3 10 11 16 18 12 16 19 24 12 3 2 6 11 10 13 9 5 2 12 12 7 12 11 11 17 19 19 20
16 15 14 12 9 8 8 11 11 17 17 12 10 9 5 5 5 3 11 13 13 13 17 21 3 7 2 5 5 9 8 14 5 2 6 4 13 8 4 7 15 17 18 19
18 14 12 11 10 8 10 13 13 13 19 15 11 11 5 3 4 6 7 8 17 12 14 17 10 9 12 8 11 14 13 16 20 18 8 5 16 8 6 3 4 11 13 17
15 13 12 10 9 8 9 8 12 7 8 11 10 5 2 5 7 9 9 4 17 13 9 8 7 7 17 12 19 11 16 9 11 8 6 3 17 6 3 5 5 7 10 13
15 14 13 11 9 8 11 10 11 6 3 4 8 5 2 3 4 5 7 5 11 14 12 11 8 9 15 18 9 18 10 9 6 5 7 10 13 15 11 6 5 5 8 10
15 14 13 12 10 10 13 10 10 6 3 2 5 3 5 4 2 4 3 6 8 9 11 11 11 7 17 14 12 13 7 6 7 6 11 11 12 10 8 6 5 4 6 6
15 13 13 12 11 11 12 10 10 6 3 5 5 4 6 3 4 4 5 5 7 6 8 8 10 11 11 12 9 10 14 4 5 3 3 7 8 7 7 6 5 6 7 7
14 14 14 13 12 12 13 11 7 4 2 2 2 3 5 3 6 7 6 7 7 5 5 5 4 8 9 13 6 9 10 4 4 2 4 5 4 5 4 4 4 5 7 6
14 13 14 12 13 14 14 9 7 5 2 2 1 0 3 3 5 6 7 8 7 6 4 4 5 7 8 7 8 8 6 3 2 5 6 6 5 5 3 4 4 3 4 3
14 14 13 14 15 16 13 8 5 3 3 2 1 2 1 4 6 3 4 4 6 5 3 3 4 8 9 7 6 5 3 4 4 5 6 5 4 2 3 5 5 4 3 3
16 16 16 17 19 20 14 10 6 3 2 1 1 1 1 2 2 3 2 4 5 4 2 2 4 7 6 4 3 3 2 3 6 4 4 4 4 4 4 4 3 2 1 2
18 18 20 21 18 15 10 7 4 2 1 1 2 2 4 2 0 1 3 4 2 1 1 2 3 3 2 5 2 2 3 5 6 6 5 4 3 2 3 4 3 3 3 4
20 22 23 17 11 10 9 5 5 5 6 9 11 7 3 1 2 0 0 2 0 2 2 1 2 4 6 5 2 3 5 5 4 5 4 3 3 4 5 4 4 4 5 6
24 27 21 9 12 11 7 4 3 3 2 2 2 4 7 5 2 1 2 2 2 2 1 2 3 2 3 3 4 4 4 3 2 3 4 4 4 4 4 5 6 7 7 7
27 28 12 11 12 6 6 4 4 4 2 1 2 2 4 8 6 4 3 4 3 2 2 3 3 1 1 3 3 5 4 3 4 4 4 4 4 5 6 7 6 5 6 7
24 24 13 10 9 7 7 8 6 5 4 2 2 4 2 7 6 5 4 2 3 3 2 3 3 3 1 2 4 5 5 4 5 5 5 5 7 7 7 5 6 7 9 10
21 11 14 8 6 9 7 10 7 6 3 2 3 2 2 5 6 3 2 2 3 2 3 4 1 1 3 4 3 4 5 6 5 4 5 8 7 5 6 7 8 9 10 13
10 9 7 11 6 7 9 7 6 5 6 5 3 1 3 6 4 3 3 2 3 4 6 3 5 3 5 7 5 5 6 5 4 5 8 6 4 4 5 7 8 12 17 20
8 5 10 16 11 8 9 10 7 6 6 4 3 3 2 3 2 4 4 3 5 2 1 2 3 4 6 8 6 6 6 5 5 7 5 3 3 5 8 11 16 19 20 21
8 8 6 13 17 13 8 7 6 8 6 3 3 2 3 2 4 4 5 5 1 2 1 2 3 2 5 6 6 6 6 5 7 6 3 2 5 7 11 16 19 20 20 21